Home > Time Zones > World Clock > Weather > Spain > Palma > Past weeks

Flag for Spain Weather past 2 weeks in Palma, Majorca, Spain

Now
72 °F

Passing clouds.


Feels Like: 71 °F
Forecast: 68 / 79 °F
Wind: No wind

Location: Palma De Mallorca / Son San Juan

Current Time: Sep 21, 2014 at 2:33:19 AM

Latest Report: Sep 21, 2014 at 2:00 AM


Visibility: N/A

Pressure: 30.07 "Hg

Humidity: 83%

Dew point: 66 °F

Location of PalmaLocation

Historic Weather in Palma — Graph

°F

Palma temperature yesterday

Maximum temperature yesterday: 91 °F (at 1:30 PM)
Minimum temperature yesterday: 70 °F (at 7:30 AM)
Average temperature yesterday: 79 °F

Past Weeks' High & Low Weather Summary

 TemperatureHumidityPressure
High93 °F (Sep 9, 2:00 PM)94% (Sep 6, 8:00 AM)30.07 "Hg (Sep 6, 8:00 AM)
Low66 °F (Sep 14, 6:30 AM)38% (Sep 16, 4:00 PM)29.74 "Hg (Sep 17, 5:30 AM)
Average78 °F75%29.90 "Hg
* Reported Sep 6 1:00 AM — Sep 21 1:30 AM, Palma, Weather by CustomWeather, © 2014

Note: Actual official high and low records may vary slightly from our data, if they occured in-between our weather recording intervals... More about our weather records

Advertising

Palma weather history for previous 24 hours

 ConditionsComfort  
Time TempWeatherWind HumidityBarometerVisibility
1:30 AM
Sep 21
73 °FPassing clouds.No wind83%30.07 "HgN/A
1:00 AM73 °FPassing clouds.3 mph83%30.07 "HgN/A
12:30 AM73 °FPassing clouds.1 mph78%30.04 "HgN/A
12:00 AM73 °FPassing clouds.1 mph78%30.04 "HgN/A
11:30 PM
Sep 20
75 °FPassing clouds.1 mph78%30.04 "HgN/A
11:00 PM77 °FPassing clouds.No wind74%30.04 "HgN/A
10:30 PM79 °FPassing clouds.No wind74%30.04 "HgN/A
10:00 PM79 °FPassing clouds.2 mph74%30.04 "HgN/A
9:30 PM81 °FPassing clouds.2 mph70%30.04 "HgN/A
9:00 PM81 °FPassing clouds.No wind70%30.04 "HgN/A
8:30 PM82 °FPassing clouds.1 mph66%30.01 "HgN/A
8:00 PM82 °FPassing clouds.2 mph66%30.01 "HgN/A
7:30 PM82 °FPassing clouds.5 mph66%30.01 "HgN/A
3:30 PM86 °FPassing clouds.9 mph59%29.98 "HgN/A
3:00 PM88 °FPassing clouds.10 mph55%29.98 "HgN/A
2:30 PM88 °FPassing clouds.13 mph52%29.98 "HgN/A
2:00 PM88 °FPassing clouds.12 mph49%29.98 "HgN/A
1:30 PM91 °FPassing clouds.No wind41%30.01 "HgN/A
1:00 PM90 °FPassing clouds.3 mph46%30.01 "HgN/A
12:30 PM88 °FPassing clouds.2 mph46%30.01 "HgN/A
12:00 PM88 °FPassing clouds.1 mph49%30.01 "HgN/A
11:30 AM86 °FPassing clouds.6 mph59%30.01 "HgN/A
11:00 AM82 °FPassing clouds.9 mph66%30.01 "HgN/A
10:30 AM82 °FPassing clouds.10 mph70%30.01 "HgN/A
10:00 AM81 °FPassing clouds.6 mph74%30.01 "HgN/A
9:30 AM77 °FPassing clouds.2 mph79%30.01 "HgN/A
9:00 AM77 °FPassing clouds.6 mph79%29.98 "HgN/A
8:30 AM77 °FPassing clouds.1 mph74%29.98 "HgN/A
8:00 AM73 °FPassing clouds.1 mph74%29.98 "HgN/A
7:30 AM70 °FPassing clouds.3 mph88%29.95 "HgN/A
7:00 AM72 °FPassing clouds.3 mph88%29.95 "HgN/A
6:30 AM72 °FPassing clouds.2 mph88%29.95 "HgN/A
6:00 AM73 °FPassing clouds.No wind83%29.95 "HgN/A
5:30 AM72 °FPassing clouds.No wind83%29.95 "HgN/A
5:00 AM72 °FPassing clouds.No wind83%29.95 "HgN/A
4:30 AM72 °FPassing clouds.1 mph88%29.95 "HgN/A
4:00 AM72 °FPassing clouds.2 mph88%29.98 "HgN/A
3:00 AM72 °FPassing clouds.No wind94%29.98 "HgN/A
2:00 AM73 °FPassing clouds.1 mph89%29.98 "HgN/A
Weather by CustomWeather, © 2014

See weather overviewHow to use our weather pages